Time,TemperatureF,DewpointF,PressureIn,WindDirection,WindDirectionDegrees,WindSpeedMPH,WindSpeedGustMPH,Humidity,HourlyPrecipIn,Conditions,Clouds,dailyrainin,SoftwareType,DateUTC
2013-01-17 00:00:00,47.5,43.5,29.96,North,357,0.0,0.0,86,0.04,,,0.71,VWS V14.00,2013-01-17 05:00:00,
2013-01-17 00:03:00,47.5,43.5,29.96,North,357,0.0,0.0,86,0.04,,,0.00,VWS V14.00,2013-01-17 05:03:00,
2013-01-17 00:08:00,47.5,43.8,29.96,North,357,0.0,0.0,87,0.04,,,0.00,VWS V14.00,2013-01-17 05:08:00,
2013-01-17 00:13:00,47.5,43.8,29.96,North,357,0.0,0.0,87,0.04,,,0.00,VWS V14.00,2013-01-17 05:13:00,
2013-01-17 00:18:00,47.5,43.8,29.96,North,357,0.0,0.0,87,0.04,,,0.00,VWS V14.00,2013-01-17 05:18:00,
2013-01-17 00:23:00,47.7,44.0,29.96,North,357,0.0,0.0,87,0.04,,,0.00,VWS V14.00,2013-01-17 05:23:00,
2013-01-17 00:28:00,47.5,43.8,29.96,North,357,0.0,0.0,87,0.04,,,0.00,VWS V14.00,2013-01-17 05:28:00,
2013-01-17 00:33:00,47.5,43.8,29.96,North,357,0.0,0.0,87,0.04,,,0.00,VWS V14.00,2013-01-17 05:33:00,
2013-01-17 00:38:00,47.5,43.8,29.96,North,357,0.0,0.0,87,0.04,,,0.00,VWS V14.00,2013-01-17 05:38:00,
2013-01-17 00:43:00,47.5,43.8,29.96,North,357,0.0,0.0,87,0.04,,,0.00,VWS V14.00,2013-01-17 05:43:00,
2013-01-17 00:48:00,47.7,44.0,29.96,North,357,0.0,0.0,87,0.04,,,0.00,VWS V14.00,2013-01-17 05:48:00,
2013-01-17 00:53:00,47.5,43.8,29.96,North,357,0.0,0.0,87,0.08,,,0.04,VWS V14.00,2013-01-17 05:53:00,
2013-01-17 00:58:00,47.5,43.8,29.96,North,357,0.0,0.0,87,0.04,,,0.04,VWS V14.00,2013-01-17 05:58:00,
2013-01-17 01:03:00,47.5,43.8,29.96,North,357,0.0,0.0,87,0.04,,,0.04,VWS V14.00,2013-01-17 06:03:00,
2013-01-17 01:08:00,47.5,43.8,29.96,North,357,0.0,0.0,87,0.04,,,0.04,VWS V14.00,2013-01-17 06:08:00,
2013-01-17 01:13:00,47.5,43.8,29.96,WSW,255,0.0,0.0,87,0.04,,,0.04,VWS V14.00,2013-01-17 06:13:00,
2013-01-17 01:18:00,47.5,43.8,29.96,WSW,255,0.0,0.0,87,0.04,,,0.04,VWS V14.00,2013-01-17 06:18:00,
2013-01-17 01:23:00,47.5,43.8,29.96,WSW,255,0.0,0.0,87,0.04,,,0.04,VWS V14.00,2013-01-17 06:23:00,
2013-01-17 01:28:00,47.5,43.8,29.96,WSW,255,0.0,0.0,87,0.04,,,0.04,VWS V14.00,2013-01-17 06:28:00,
2013-01-17 01:33:00,47.3,43.9,29.96,WSW,255,0.0,0.0,88,0.04,,,0.04,VWS V14.00,2013-01-17 06:33:00,
2013-01-17 01:38:00,47.3,43.9,29.96,WSW,255,0.0,0.0,88,0.04,,,0.04,VWS V14.00,2013-01-17 06:38:00,
2013-01-17 01:43:00,47.3,43.9,29.96,WSW,255,0.0,0.0,88,0.04,,,0.04,VWS V14.00,2013-01-17 06:43:00,
2013-01-17 01:48:00,47.3,43.9,29.96,WSW,255,0.0,0.0,88,0.04,,,0.04,VWS V14.00,2013-01-17 06:48:00,
2013-01-17 01:53:00,47.5,44.1,29.96,WSW,255,0.0,0.0,88,0.04,,,0.08,VWS V14.00,2013-01-17 06:53:00,
2013-01-17 01:58:00,47.5,44.1,29.96,WSW,255,0.0,0.0,88,0.04,,,0.08,VWS V14.00,2013-01-17 06:58:00,
2013-01-17 02:03:00,47.5,44.1,29.96,WSW,255,0.0,0.0,88,0.04,,,0.08,VWS V14.00,2013-01-17 07:03:00,
2013-01-17 02:09:00,47.3,43.9,29.96,WSW,255,0.0,0.0,88,0.04,,,0.08,VWS V14.00,2013-01-17 07:09:00,
2013-01-17 02:14:00,47.3,43.9,29.96,WSW,255,0.0,0.0,88,0.04,,,0.08,VWS V14.00,2013-01-17 07:14:00,
2013-01-17 02:19:00,47.3,43.9,29.99,WSW,255,0.0,0.0,88,0.04,,,0.08,VWS V14.00,2013-01-17 07:19:00,
2013-01-17 02:24:00,47.5,44.1,29.99,WSW,255,0.0,0.0,88,0.04,,,0.08,VWS V14.00,2013-01-17 07:24:00,
2013-01-17 02:29:00,47.5,44.1,29.99,WSW,255,0.0,0.0,88,0.04,,,0.08,VWS V14.00,2013-01-17 07:29:00,
2013-01-17 02:34:00,47.5,44.1,29.96,WSW,255,0.0,0.0,88,0.04,,,0.08,VWS V14.00,2013-01-17 07:34:00,
2013-01-17 02:39:00,47.5,44.4,29.96,WSW,255,0.0,0.0,89,0.04,,,0.08,VWS V14.00,2013-01-17 07:39:00,
2013-01-17 02:44:00,47.5,44.4,29.96,WSW,255,0.0,0.0,89,0.04,,,0.08,VWS V14.00,2013-01-17 07:44:00,
2013-01-17 02:49:00,47.5,44.4,29.96,WSW,255,0.0,0.0,89,0.04,,,0.08,VWS V14.00,2013-01-17 07:49:00,
2013-01-17 02:54:00,47.5,44.4,29.96,WSW,255,0.0,0.0,89,0.00,,,0.08,VWS V14.00,2013-01-17 07:54:00,
2013-01-17 02:59:00,47.3,44.2,29.96,WSW,255,0.0,0.0,89,0.00,,,0.08,VWS V14.00,2013-01-17 07:59:00,
2013-01-17 03:04:00,47.3,44.2,29.99,WSW,256,0.0,0.0,89,0.00,,,0.08,VWS V14.00,2013-01-17 08:04:00,
2013-01-17 03:09:00,47.3,44.2,29.99,WSW,255,0.0,0.0,89,0.00,,,0.08,VWS V14.00,2013-01-17 08:09:00,
2013-01-17 03:14:00,47.3,44.2,29.99,WSW,255,0.0,0.0,89,0.04,,,0.12,VWS V14.00,2013-01-17 08:14:00,
2013-01-17 03:19:00,47.3,44.2,29.99,WSW,255,0.0,0.0,89,0.04,,,0.12,VWS V14.00,2013-01-17 08:19:00,
2013-01-17 03:24:00,47.3,44.2,29.99,WSW,255,0.0,0.0,89,0.04,,,0.12,VWS V14.00,2013-01-17 08:24:00,
2013-01-17 03:29:00,47.3,44.2,29.99,WSW,255,0.0,0.0,89,0.04,,,0.12,VWS V14.00,2013-01-17 08:29:00,
2013-01-17 03:34:00,47.3,44.2,29.99,WSW,255,0.0,0.0,89,0.08,,,0.16,VWS V14.00,2013-01-17 08:34:00,
2013-01-17 03:39:00,47.3,44.2,29.99,WSW,255,0.0,0.0,89,0.08,,,0.16,VWS V14.00,2013-01-17 08:39:00,
2013-01-17 03:44:00,47.1,44.0,29.99,WSW,255,0.0,0.0,89,0.08,,,0.16,VWS V14.00,2013-01-17 08:44:00,
2013-01-17 03:49:00,47.1,44.0,29.99,WSW,255,0.0,0.0,89,0.08,,,0.16,VWS V14.00,2013-01-17 08:49:00,
2013-01-17 03:54:00,47.1,44.0,29.99,WSW,255,0.0,0.0,89,0.08,,,0.16,VWS V14.00,2013-01-17 08:54:00,
2013-01-17 03:59:00,47.1,44.0,29.99,WSW,255,0.0,0.0,89,0.08,,,0.16,VWS V14.00,2013-01-17 08:59:00,
2013-01-17 04:04:00,47.1,44.0,29.96,WSW,255,0.0,0.0,89,0.08,,,0.16,VWS V14.00,2013-01-17 09:04:00,
2013-01-17 04:09:00,47.1,44.0,29.96,WSW,255,0.0,0.0,89,0.08,,,0.16,VWS V14.00,2013-01-17 09:09:00,
2013-01-17 04:14:00,47.3,44.2,29.96,WSW,255,0.0,0.0,89,0.04,,,0.16,VWS V14.00,2013-01-17 09:14:00,
2013-01-17 04:19:00,47.1,44.0,29.96,WSW,255,0.0,0.0,89,0.04,,,0.16,VWS V14.00,2013-01-17 09:19:00,
2013-01-17 04:24:00,47.3,44.2,29.96,WSW,255,0.0,0.0,89,0.04,,,0.16,VWS V14.00,2013-01-17 09:24:00,
2013-01-17 04:29:00,47.3,44.2,29.96,WSW,255,0.0,0.0,89,0.04,,,0.16,VWS V14.00,2013-01-17 09:29:00,
2013-01-17 04:34:00,47.1,44.0,29.96,WSW,255,0.0,0.0,89,0.04,,,0.16,VWS V14.00,2013-01-17 09:34:00,
2013-01-17 04:39:00,47.3,44.2,29.96,WSW,255,0.0,0.0,89,0.00,,,0.16,VWS V14.00,2013-01-17 09:39:00,
2013-01-17 04:45:00,47.1,44.0,29.96,WSW,255,0.0,0.0,89,0.00,,,0.16,VWS V14.00,2013-01-17 09:45:00,
2013-01-17 04:50:00,47.1,44.0,29.99,WSW,255,0.0,0.0,89,0.00,,,0.16,VWS V14.00,2013-01-17 09:50:00,
2013-01-17 04:55:00,47.1,44.0,29.99,WSW,255,0.0,0.0,89,0.00,,,0.16,VWS V14.00,2013-01-17 09:55:00,
2013-01-17 05:00:00,47.1,44.0,29.99,WSW,255,0.0,0.0,89,0.00,,,0.16,VWS V14.00,2013-01-17 10:00:00,
2013-01-17 05:05:00,47.3,44.2,29.96,WSW,255,0.0,0.0,89,0.00,,,0.16,VWS V14.00,2013-01-17 10:05:00,
2013-01-17 05:10:00,47.3,44.2,29.96,WSW,255,0.0,0.0,89,0.00,,,0.16,VWS V14.00,2013-01-17 10:10:00,
2013-01-17 05:15:00,47.3,44.2,29.96,WSW,255,0.0,0.0,89,0.00,,,0.16,VWS V14.00,2013-01-17 10:15:00,
2013-01-17 05:20:00,47.3,44.2,29.99,WSW,255,0.0,0.0,89,0.00,,,0.16,VWS V14.00,2013-01-17 10:20:00,
2013-01-17 05:25:00,47.3,44.2,29.99,WSW,255,0.0,0.0,89,0.00,,,0.16,VWS V14.00,2013-01-17 10:25:00,
2013-01-17 05:30:00,47.1,44.0,29.99,WSW,255,0.0,0.0,89,0.00,,,0.16,VWS V14.00,2013-01-17 10:30:00,
2013-01-17 05:35:00,47.1,44.0,29.99,WSW,255,0.0,0.0,89,0.00,,,0.16,VWS V14.00,2013-01-17 10:35:00,
2013-01-17 05:40:00,47.1,44.0,29.99,WSW,255,0.0,0.0,89,0.00,,,0.16,VWS V14.00,2013-01-17 10:40:00,
2013-01-17 05:45:00,47.1,44.0,29.99,WSW,255,0.0,0.0,89,0.04,,,0.20,VWS V14.00,2013-01-17 10:45:00,
2013-01-17 05:50:00,47.1,44.0,29.99,WSW,255,0.0,0.0,89,0.04,,,0.20,VWS V14.00,2013-01-17 10:50:00,
2013-01-17 05:55:00,46.9,43.9,29.99,WSW,255,0.0,0.0,89,0.04,,,0.20,VWS V14.00,2013-01-17 10:55:00,
2013-01-17 06:00:00,46.9,43.9,29.99,WSW,255,0.0,0.0,89,0.04,,,0.20,VWS V14.00,2013-01-17 11:00:00,
2013-01-17 06:05:00,46.9,43.9,29.99,WSW,255,0.0,0.0,89,0.04,,,0.20,VWS V14.00,2013-01-17 11:05:00,
2013-01-17 06:10:00,46.9,43.9,29.99,WSW,255,0.0,0.0,89,0.04,,,0.20,VWS V14.00,2013-01-17 11:10:00,
2013-01-17 06:15:00,46.8,43.7,29.99,WSW,255,0.0,0.0,89,0.04,,,0.20,VWS V14.00,2013-01-17 11:15:00,
2013-01-17 06:20:00,46.9,43.9,29.99,WSW,255,0.0,0.0,89,0.04,,,0.20,VWS V14.00,2013-01-17 11:20:00,
2013-01-17 06:25:00,46.9,43.9,29.99,WSW,255,0.0,0.0,89,0.04,,,0.20,VWS V14.00,2013-01-17 11:25:00,
2013-01-17 06:30:00,46.9,43.9,29.99,WSW,255,0.0,0.0,89,0.04,,,0.20,VWS V14.00,2013-01-17 11:30:00,
2013-01-17 06:35:00,46.8,43.7,29.99,WSW,255,0.0,0.0,89,0.04,,,0.20,VWS V14.00,2013-01-17 11:35:00,
2013-01-17 06:40:00,46.8,43.7,29.99,SW,232,4.0,4.0,89,0.04,,,0.20,VWS V14.00,2013-01-17 11:40:00,
2013-01-17 06:45:00,46.6,43.5,29.99,SW,229,0.0,2.2,89,0.00,,,0.20,VWS V14.00,2013-01-17 11:45:00,
2013-01-17 06:50:00,46.4,43.0,29.99,SW,226,2.2,2.7,88,0.00,,,0.20,VWS V14.00,2013-01-17 11:50:00,
2013-01-17 06:55:00,46.0,42.4,29.99,SSW,210,2.2,2.7,87,0.00,,,0.20,VWS V14.00,2013-01-17 11:55:00,
2013-01-17 07:00:00,46.0,41.8,29.99,SSW,210,0.0,0.0,85,0.00,,,0.20,VWS V14.00,2013-01-17 12:00:00,
2013-01-17 07:05:00,46.2,41.7,29.99,SW,220,0.0,0.0,84,0.00,,,0.20,VWS V14.00,2013-01-17 12:05:00,
2013-01-17 07:10:00,46.2,41.3,29.99,SW,220,0.0,0.0,83,0.08,,,0.28,VWS V14.00,2013-01-17 12:10:00,
2013-01-17 07:15:00,46.2,41.3,29.99,ESE,113,0.0,0.0,83,0.08,,,0.28,VWS V14.00,2013-01-17 12:15:00,
2013-01-17 07:20:00,46.0,41.2,30.05,SSW,197,0.0,0.0,83,0.08,,,0.28,VWS V14.00,2013-01-17 12:20:00,
2013-01-17 07:25:00,45.9,40.7,30.05,SSW,211,0.0,0.0,82,0.08,,,0.28,VWS V14.00,2013-01-17 12:25:00,
2013-01-17 07:30:00,45.9,40.7,30.05,SSW,211,0.0,0.0,82,0.12,,,0.31,VWS V14.00,2013-01-17 12:30:00,
2013-01-17 07:35:00,45.7,40.5,30.02,SSW,211,0.0,0.0,82,0.12,,,0.31,VWS V14.00,2013-01-17 12:35:00,
2013-01-17 07:40:00,45.7,40.5,30.02,SSW,211,0.0,0.0,82,0.12,,,0.31,VWS V14.00,2013-01-17 12:40:00,
2013-01-17 07:45:00,45.5,40.7,30.02,SW,214,0.0,0.0,83,0.12,,,0.31,VWS V14.00,2013-01-17 12:45:00,
2013-01-17 07:50:00,45.3,40.2,30.02,SW,225,3.6,4.0,82,0.12,,,0.31,VWS V14.00,2013-01-17 12:50:00,
2013-01-17 07:55:00,45.1,39.7,30.02,SW,224,2.7,3.1,81,0.12,,,0.31,VWS V14.00,2013-01-17 12:55:00,
2013-01-17 08:00:00,44.8,39.0,30.02,SW,232,3.1,5.4,80,0.12,,,0.31,VWS V14.00,2013-01-17 13:00:00,
2013-01-17 08:05:00,44.6,38.5,30.02,SW,222,4.9,4.9,79,0.12,,,0.31,VWS V14.00,2013-01-17 13:05:00,
2013-01-17 08:10:00,44.2,37.5,30.02,SSW,212,3.1,3.6,77,0.04,,,0.31,VWS V14.00,2013-01-17 13:10:00,
2013-01-17 08:15:00,44.1,37.0,30.02,SW,218,3.6,3.6,76,0.04,,,0.31,VWS V14.00,2013-01-17 13:15:00,
2013-01-17 08:20:00,43.9,36.8,30.02,SW,232,3.1,3.1,76,0.04,,,0.31,VWS V14.00,2013-01-17 13:20:00,
2013-01-17 08:25:00,43.7,36.3,30.02,SW,227,0.0,0.0,75,0.04,,,0.31,VWS V14.00,2013-01-17 13:25:00,
2013-01-17 08:30:00,43.5,35.8,30.02,WSW,237,3.6,3.6,74,0.00,,,0.31,VWS V14.00,2013-01-17 13:30:00,
2013-01-17 08:35:00,43.0,34.2,30.05,SW,216,2.2,2.7,71,0.04,,,0.35,VWS V14.00,2013-01-17 13:35:00,
2013-01-17 08:40:00,42.4,33.4,30.05,SW,218,4.0,4.0,70,0.04,,,0.35,VWS V14.00,2013-01-17 13:40:00,
2013-01-17 08:45:00,41.9,31.4,30.05,SW,218,5.8,5.8,66,0.04,,,0.35,VWS V14.00,2013-01-17 13:45:00,
2013-01-17 08:50:00,41.4,30.9,30.05,SW,235,4.9,5.8,66,0.04,,,0.35,VWS V14.00,2013-01-17 13:50:00,
2013-01-17 08:55:00,41.4,31.2,30.05,SSW,213,2.7,4.0,67,0.08,,,0.39,VWS V14.00,2013-01-17 13:55:00,
2013-01-17 09:00:00,41.2,31.1,30.05,SW,216,2.7,3.6,67,0.08,,,0.39,VWS V14.00,2013-01-17 14:00:00,
2013-01-17 09:06:00,41.0,30.9,30.08,SSW,205,3.1,3.6,67,0.08,,,0.39,VWS V14.00,2013-01-17 14:06:00,
2013-01-17 09:11:00,41.0,30.5,30.08,SSW,211,3.1,3.6,66,0.08,,,0.39,VWS V14.00,2013-01-17 14:11:00,
2013-01-17 09:16:00,40.8,31.1,30.08,SSW,213,2.7,2.7,68,0.08,,,0.39,VWS V14.00,2013-01-17 14:16:00,
2013-01-17 09:21:00,40.6,30.9,30.08,SW,220,3.1,4.5,68,0.12,,,0.43,VWS V14.00,2013-01-17 14:21:00,
2013-01-17 09:26:00,40.6,30.9,30.08,SSW,212,3.1,3.6,68,0.12,,,0.43,VWS V14.00,2013-01-17 14:26:00,
2013-01-17 09:31:00,40.5,30.8,30.08,SW,221,4.0,4.9,68,0.12,,,0.43,VWS V14.00,2013-01-17 14:31:00,
2013-01-17 09:36:00,40.5,31.5,30.05,SSW,209,5.4,5.4,70,0.12,,,0.43,VWS V14.00,2013-01-17 14:36:00,
2013-01-17 09:41:00,40.6,32.0,30.05,SW,232,5.4,5.8,71,0.08,,,0.43,VWS V14.00,2013-01-17 14:41:00,
2013-01-17 09:46:00,40.6,32.0,30.05,SW,222,4.9,4.9,71,0.08,,,0.43,VWS V14.00,2013-01-17 14:46:00,
2013-01-17 09:51:00,40.8,32.5,30.05,SW,228,5.8,5.8,72,0.08,,,0.43,VWS V14.00,2013-01-17 14:51:00,
2013-01-17 09:56:00,40.8,32.2,30.05,SW,226,4.9,4.9,71,0.04,,,0.43,VWS V14.00,2013-01-17 14:56:00,
2013-01-17 10:01:00,40.8,31.1,30.05,SSW,204,4.0,4.5,68,0.04,,,0.43,VWS V14.00,2013-01-17 15:01:00,
2013-01-17 10:06:00,40.8,30.7,30.05,SSW,207,4.0,4.9,67,0.04,,,0.43,VWS V14.00,2013-01-17 15:06:00,
2013-01-17 10:11:00,40.8,30.4,30.05,SW,215,3.1,3.1,66,0.08,,,0.47,VWS V14.00,2013-01-17 15:11:00,
2013-01-17 10:16:00,40.6,30.2,30.05,SW,216,3.1,3.6,66,0.08,,,0.47,VWS V14.00,2013-01-17 15:16:00,
2013-01-17 10:21:00,40.8,30.4,30.08,SW,218,2.2,2.7,66,0.04,,,0.47,VWS V14.00,2013-01-17 15:21:00,
2013-01-17 10:26:00,40.6,30.2,30.08,SW,229,3.1,3.1,66,0.04,,,0.47,VWS V14.00,2013-01-17 15:26:00,
2013-01-17 10:31:00,40.5,30.0,30.08,SSW,209,3.6,3.6,66,0.04,,,0.47,VWS V14.00,2013-01-17 15:31:00,
2013-01-17 10:36:00,40.3,30.2,30.05,SSW,203,2.2,2.7,67,0.04,,,0.47,VWS V14.00,2013-01-17 15:36:00,
2013-01-17 10:41:00,40.1,30.4,30.05,SW,214,2.2,2.7,68,0.08,,,0.51,VWS V14.00,2013-01-17 15:41:00,
2013-01-17 10:46:00,39.9,30.6,30.08,SW,231,0.0,3.6,69,0.08,,,0.51,VWS V14.00,2013-01-17 15:46:00,
2013-01-17 10:51:00,39.7,30.4,30.08,SW,224,2.2,2.2,69,0.08,,,0.51,VWS V14.00,2013-01-17 15:51:00,
2013-01-17 10:56:00,39.7,30.8,30.08,SSW,211,0.0,2.7,70,0.08,,,0.51,VWS V14.00,2013-01-17 15:56:00,
2013-01-17 11:01:00,39.7,30.8,30.05,SW,234,0.0,0.0,70,0.08,,,0.51,VWS V14.00,2013-01-17 16:01:00,
2013-01-17 11:06:00,39.7,30.8,30.05,SW,220,0.0,0.0,70,0.08,,,0.51,VWS V14.00,2013-01-17 16:06:00,
2013-01-17 11:11:00,39.9,31.3,30.05,SSW,213,0.0,0.0,71,0.04,,,0.51,VWS V14.00,2013-01-17 16:11:00,
2013-01-17 11:16:00,39.9,31.3,30.05,SSW,213,0.0,0.0,71,0.04,,,0.51,VWS V14.00,2013-01-17 16:16:00,
2013-01-17 11:21:00,40.1,31.5,30.05,SSW,203,0.0,0.0,71,0.08,,,0.55,VWS V14.00,2013-01-17 16:21:00,
2013-01-17 11:26:00,40.1,31.5,30.05,SW,222,0.0,0.0,71,0.08,,,0.55,VWS V14.00,2013-01-17 16:26:00,
2013-01-17 11:31:00,40.3,31.6,30.05,SW,222,0.0,0.0,71,0.08,,,0.55,VWS V14.00,2013-01-17 16:31:00,
2013-01-17 11:36:00,40.5,31.8,30.05,SSW,201,0.0,0.0,71,0.08,,,0.55,VWS V14.00,2013-01-17 16:36:00,
2013-01-17 11:42:00,40.5,32.2,30.05,SSW,212,0.0,3.1,72,0.08,,,0.55,VWS V14.00,2013-01-17 16:42:00,
2013-01-17 11:47:00,40.6,32.3,30.05,SW,219,0.0,0.0,72,0.04,,,0.55,VWS V14.00,2013-01-17 16:47:00,
2013-01-17 11:52:00,40.6,32.3,30.05,SW,219,0.0,0.0,72,0.04,,,0.55,VWS V14.00,2013-01-17 16:52:00,
2013-01-17 11:57:00,40.6,32.7,30.05,SW,232,0.0,0.0,73,0.04,,,0.55,VWS V14.00,2013-01-17 16:57:00,
2013-01-17 12:02:00,40.6,32.7,30.05,SW,222,2.7,3.6,73,0.04,,,0.55,VWS V14.00,2013-01-17 17:02:00,
2013-01-17 12:07:00,40.5,32.8,30.05,SW,232,2.7,2.7,74,0.04,,,0.55,VWS V14.00,2013-01-17 17:07:00,
2013-01-17 12:12:00,40.3,33.0,30.05,SW,216,3.6,4.0,75,0.08,,,0.59,VWS V14.00,2013-01-17 17:12:00,
2013-01-17 12:17:00,39.9,32.3,30.05,SW,224,3.1,3.1,74,0.08,,,0.59,VWS V14.00,2013-01-17 17:17:00,
2013-01-17 12:22:00,39.9,32.7,30.05,SSW,213,3.1,4.9,75,0.04,,,0.59,VWS V14.00,2013-01-17 17:22:00,
2013-01-17 12:27:00,39.7,32.5,30.05,SSW,207,2.7,2.7,75,0.08,,,0.63,VWS V14.00,2013-01-17 17:27:00,
2013-01-17 12:32:00,39.6,32.6,30.02,SW,233,4.0,4.9,76,0.12,,,0.67,VWS V14.00,2013-01-17 17:32:00,
2013-01-17 12:37:00,39.6,32.6,30.02,SW,219,2.7,4.0,76,0.12,,,0.67,VWS V14.00,2013-01-17 17:37:00,
2013-01-17 12:42:00,39.6,33.0,30.02,SW,236,3.1,3.1,77,0.16,,,0.71,VWS V14.00,2013-01-17 17:42:00,
2013-01-17 12:47:00,39.7,33.1,29.99,SSW,210,3.1,3.1,77,0.16,,,0.71,VWS V14.00,2013-01-17 17:47:00,
2013-01-17 12:52:00,39.7,33.1,29.99,SSW,207,3.6,3.6,77,0.16,,,0.71,VWS V14.00,2013-01-17 17:52:00,
2013-01-17 12:57:00,39.9,33.6,29.99,SSW,209,0.0,0.0,78,0.20,,,0.75,VWS V14.00,2013-01-17 17:57:00,
2013-01-17 13:02:00,39.9,33.6,30.02,SW,223,0.0,0.0,78,0.20,,,0.75,VWS V14.00,2013-01-17 18:02:00,
2013-01-17 13:07:00,39.9,33.6,30.02,SSW,195,0.0,0.0,78,0.20,,,0.75,VWS V14.00,2013-01-17 18:07:00,
2013-01-17 13:12:00,39.9,33.3,30.02,NNE,33,0.0,0.0,77,0.16,,,0.75,VWS V14.00,2013-01-17 18:12:00,
2013-01-17 13:17:00,39.9,33.3,29.99,SW,234,3.6,3.6,77,0.16,,,0.75,VWS V14.00,2013-01-17 18:17:00,
2013-01-17 13:22:00,39.9,33.3,29.99,SW,229,3.6,5.4,77,0.16,,,0.75,VWS V14.00,2013-01-17 18:22:00,
2013-01-17 13:27:00,39.9,33.3,29.99,SW,227,3.1,3.1,77,0.12,,,0.75,VWS V14.00,2013-01-17 18:27:00,
2013-01-17 13:32:00,39.9,33.3,29.99,SSW,211,2.7,2.7,77,0.08,,,0.75,VWS V14.00,2013-01-17 18:32:00,
2013-01-17 13:37:00,40.1,33.5,29.99,SSW,211,0.0,0.0,77,0.08,,,0.75,VWS V14.00,2013-01-17 18:37:00,
2013-01-17 13:42:00,40.3,33.7,29.99,SSW,207,2.2,3.6,77,0.04,,,0.75,VWS V14.00,2013-01-17 18:42:00,
2013-01-17 13:47:00,40.3,33.7,29.99,SW,227,3.1,3.6,77,0.04,,,0.75,VWS V14.00,2013-01-17 18:47:00,
2013-01-17 13:52:00,40.3,33.7,29.99,SW,217,3.1,3.1,77,0.08,,,0.79,VWS V14.00,2013-01-17 18:52:00,
2013-01-17 13:57:00,40.3,33.7,29.99,SW,227,3.6,3.6,77,0.04,,,0.79,VWS V14.00,2013-01-17 18:57:00,
2013-01-17 14:03:00,40.3,34.0,29.96,SW,216,3.6,4.0,78,0.04,,,0.79,VWS V14.00,2013-01-17 19:03:00,
2013-01-17 14:08:00,40.5,34.2,29.96,SW,232,4.9,4.9,78,0.04,,,0.79,VWS V14.00,2013-01-17 19:08:00,
2013-01-17 14:13:00,40.3,34.0,29.96,WSW,242,4.5,5.8,78,0.04,,,0.79,VWS V14.00,2013-01-17 19:13:00,
2013-01-17 14:18:00,40.3,34.0,29.96,SSW,209,3.6,4.0,78,0.08,,,0.83,VWS V14.00,2013-01-17 19:18:00,
2013-01-17 14:23:00,40.3,34.3,29.96,SW,214,4.9,4.9,79,0.08,,,0.83,VWS V14.00,2013-01-17 19:23:00,
2013-01-17 14:28:00,40.5,34.8,29.96,SW,221,3.1,4.0,80,0.08,,,0.83,VWS V14.00,2013-01-17 19:28:00,
2013-01-17 14:33:00,40.5,35.1,29.96,SW,227,4.9,4.9,81,0.08,,,0.83,VWS V14.00,2013-01-17 19:33:00,
2013-01-17 14:38:00,40.6,35.3,29.96,SSW,200,0.0,0.0,81,0.08,,,0.83,VWS V14.00,2013-01-17 19:38:00,
2013-01-17 14:43:00,40.5,35.1,29.96,SSE,166,0.0,0.0,81,0.08,,,0.83,VWS V14.00,2013-01-17 19:43:00,
2013-01-17 14:48:00,40.3,34.9,29.99,SW,221,3.1,3.6,81,0.12,,,0.87,VWS V14.00,2013-01-17 19:48:00,
2013-01-17 14:53:00,40.1,34.8,29.99,SSW,197,0.0,0.0,81,0.08,,,0.87,VWS V14.00,2013-01-17 19:53:00,
2013-01-17 14:58:00,40.1,34.4,29.99,SSW,196,0.0,0.0,80,0.12,,,0.91,VWS V14.00,2013-01-17 19:58:00,
2013-01-17 15:03:00,39.7,34.1,29.99,SSW,207,3.6,3.6,80,0.12,,,0.91,VWS V14.00,2013-01-17 20:03:00,
2013-01-17 15:08:00,39.4,33.4,29.99,SSW,212,2.7,3.6,79,0.12,,,0.91,VWS V14.00,2013-01-17 20:08:00,
2013-01-17 15:13:00,39.2,32.9,29.99,SW,219,3.1,3.1,78,0.12,,,0.91,VWS V14.00,2013-01-17 20:13:00,
2013-01-17 15:18:00,39.0,32.8,29.99,SW,214,3.1,3.1,78,0.12,,,0.94,VWS V14.00,2013-01-17 20:18:00,
2013-01-17 15:23:00,38.8,32.6,29.99,SSW,210,3.6,4.0,78,0.12,,,0.94,VWS V14.00,2013-01-17 20:23:00,
2013-01-17 15:28:00,38.8,32.6,29.99,SW,216,4.0,4.0,78,0.12,,,0.94,VWS V14.00,2013-01-17 20:28:00,
2013-01-17 15:33:00,38.7,32.7,29.96,SW,217,4.0,5.4,79,0.16,,,0.98,VWS V14.00,2013-01-17 20:33:00,
2013-01-17 15:38:00,38.5,32.5,29.96,SSW,212,5.8,6.3,79,0.16,,,0.98,VWS V14.00,2013-01-17 20:38:00,
2013-01-17 15:43:00,38.5,32.9,29.96,SW,218,4.0,4.0,80,0.24,,,1.06,VWS V14.00,2013-01-17 20:43:00,
2013-01-17 15:48:00,38.3,32.7,29.96,SW,218,5.8,5.8,80,0.24,,,1.10,VWS V14.00,2013-01-17 20:48:00,
2013-01-17 15:54:00,38.5,33.2,29.96,SSW,212,3.6,4.5,81,0.24,,,1.10,VWS V14.00,2013-01-17 20:54:00,
2013-01-17 15:59:00,38.3,33.0,29.96,SW,218,4.0,5.4,81,0.20,,,1.10,VWS V14.00,2013-01-17 20:59:00,
2013-01-17 16:04:00,38.3,33.0,29.96,SW,223,2.7,4.0,81,0.20,,,1.10,VWS V14.00,2013-01-17 21:04:00,
2013-01-17 16:09:00,38.3,33.0,29.96,SSW,207,2.7,2.7,81,0.24,,,1.14,VWS V14.00,2013-01-17 21:09:00,
2013-01-17 16:14:00,38.1,32.8,29.96,SSW,198,3.6,4.9,81,0.24,,,1.14,VWS V14.00,2013-01-17 21:14:00,
2013-01-17 16:19:00,37.9,32.6,29.99,SSW,205,3.6,3.6,81,0.24,,,1.18,VWS V14.00,2013-01-17 21:19:00,
2013-01-17 16:24:00,37.8,32.2,29.99,South,182,3.1,3.1,80,0.24,,,1.18,VWS V14.00,2013-01-17 21:24:00,
2013-01-17 16:29:00,37.4,31.8,29.99,SSW,213,3.1,4.9,80,0.28,,,1.22,VWS V14.00,2013-01-17 21:29:00,
2013-01-17 16:34:00,36.9,31.0,30.02,SSW,204,5.4,5.4,79,0.24,,,1.22,VWS V14.00,2013-01-17 21:34:00,
2013-01-17 16:39:00,36.7,30.8,30.02,South,191,2.7,4.0,79,0.28,,,1.26,VWS V14.00,2013-01-17 21:39:00,
2013-01-17 16:44:00,36.5,30.6,30.02,SW,216,4.0,5.4,79,0.20,,,1.26,VWS V14.00,2013-01-17 21:44:00,
2013-01-17 16:49:00,36.3,30.4,30.02,SSW,200,4.9,5.4,79,0.20,,,1.30,VWS V14.00,2013-01-17 21:49:00,
2013-01-17 16:54:00,36.3,30.4,30.02,SW,219,4.9,4.9,79,0.20,,,1.30,VWS V14.00,2013-01-17 21:54:00,
2013-01-17 16:59:00,36.1,30.3,30.02,SW,230,5.4,5.4,79,0.20,,,1.30,VWS V14.00,2013-01-17 21:59:00,
2013-01-17 17:04:00,36.1,30.3,30.02,SSW,213,5.4,7.6,79,0.24,,,1.34,VWS V14.00,2013-01-17 22:04:00,
2013-01-17 17:09:00,36.0,30.1,30.02,SSW,213,4.0,5.4,79,0.20,,,1.34,VWS V14.00,2013-01-17 22:09:00,
2013-01-17 17:14:00,36.1,30.6,30.02,SW,220,5.4,5.8,80,0.20,,,1.34,VWS V14.00,2013-01-17 22:14:00,
2013-01-17 17:19:00,36.1,30.6,30.02,SW,220,4.0,6.3,80,0.16,,,1.34,VWS V14.00,2013-01-17 22:19:00,
2013-01-17 17:24:00,36.1,30.6,30.02,SW,216,6.3,8.7,80,0.20,,,1.38,VWS V14.00,2013-01-17 22:24:00,
2013-01-17 17:29:00,36.0,30.4,30.02,SW,215,4.9,6.3,80,0.16,,,1.38,VWS V14.00,2013-01-17 22:29:00,
2013-01-17 17:34:00,35.8,30.2,30.02,SW,220,8.3,8.7,80,0.16,,,1.38,VWS V14.00,2013-01-17 22:34:00,
2013-01-17 17:39:00,35.6,30.0,30.02,SSW,212,5.4,5.8,80,0.16,,,1.42,VWS V14.00,2013-01-17 22:39:00,
2013-01-17 17:44:00,35.4,29.9,30.02,SSW,207,4.0,5.4,80,0.20,,,1.46,VWS V14.00,2013-01-17 22:44:00,
2013-01-17 17:49:00,35.1,29.5,30.02,SW,219,5.4,6.3,80,0.20,,,1.50,VWS V14.00,2013-01-17 22:49:00,
2013-01-17 17:54:00,34.7,29.2,30.02,SW,218,4.9,5.4,80,0.20,,,1.50,VWS V14.00,2013-01-17 22:54:00,
2013-01-17 17:59:00,34.3,28.8,30.02,SW,219,6.3,6.3,80,0.20,,,1.50,VWS V14.00,2013-01-17 22:59:00,
2013-01-17 18:04:00,34.2,28.6,30.02,SSW,209,5.4,5.4,80,0.20,,,1.54,VWS V14.00,2013-01-17 23:04:00,
2013-01-17 18:09:00,34.0,28.5,30.02,SW,220,6.3,6.3,80,0.20,,,1.54,VWS V14.00,2013-01-17 23:09:00,
2013-01-17 18:14:00,34.0,28.8,30.02,SSW,193,5.4,5.4,81,0.20,,,1.54,VWS V14.00,2013-01-17 23:14:00,
2013-01-17 18:19:00,34.0,29.1,30.05,SSW,206,3.6,5.8,82,0.20,,,1.54,VWS V14.00,2013-01-17 23:19:00,
2013-01-17 18:24:00,34.0,29.1,30.05,SW,221,6.3,6.3,82,0.20,,,1.57,VWS V14.00,2013-01-17 23:24:00,
2013-01-17 18:29:00,34.0,29.1,30.05,SW,217,5.8,5.8,82,0.20,,,1.57,VWS V14.00,2013-01-17 23:29:00,
2013-01-17 18:34:00,33.8,28.6,30.05,SSW,207,5.4,7.2,81,0.20,,,1.57,VWS V14.00,2013-01-17 23:34:00,
2013-01-17 18:39:00,33.6,28.7,30.05,SW,214,4.0,4.0,82,0.16,,,1.57,VWS V14.00,2013-01-17 23:39:00,
2013-01-17 18:44:00,33.4,28.5,30.05,SW,219,4.0,4.0,82,0.12,,,1.57,VWS V14.00,2013-01-17 23:44:00,
2013-01-17 18:49:00,33.3,28.4,30.08,SW,224,3.1,4.0,82,0.08,,,1.57,VWS V14.00,2013-01-17 23:49:00,
2013-01-17 18:54:00,33.3,28.4,30.08,SW,219,3.6,3.6,82,0.08,,,1.57,VWS V14.00,2013-01-17 23:54:00,
2013-01-17 18:59:00,33.1,28.5,30.08,SSW,211,3.6,3.6,83,0.08,,,1.57,VWS V14.00,2013-01-17 23:59:00,
2013-01-17 19:04:00,33.1,28.5,30.05,SW,222,2.2,2.7,83,0.04,,,1.57,VWS V14.00,2013-01-18 00:04:00,
2013-01-17 19:10:00,33.1,28.8,30.05,SW,216,2.7,2.7,84,0.04,,,1.57,VWS V14.00,2013-01-18 00:10:00,
2013-01-17 19:15:00,33.1,28.8,30.05,SW,220,0.0,2.7,84,0.04,,,1.57,VWS V14.00,2013-01-18 00:15:00,
2013-01-17 19:20:00,33.1,28.8,30.08,SW,220,0.0,0.0,84,0.04,,,1.57,VWS V14.00,2013-01-18 00:20:00,
2013-01-17 19:25:00,33.3,29.2,30.08,SW,220,0.0,0.0,85,0.00,,,1.57,VWS V14.00,2013-01-18 00:25:00,
2013-01-17 19:30:00,33.1,29.1,30.08,SW,220,0.0,0.0,85,0.00,,,1.57,VWS V14.00,2013-01-18 00:30:00,
2013-01-17 19:35:00,33.1,29.1,30.08,SW,220,0.0,0.0,85,0.00,,,1.57,VWS V14.00,2013-01-18 00:35:00,
2013-01-17 19:40:00,33.1,29.1,30.08,SW,221,0.0,0.0,85,0.00,,,1.57,VWS V14.00,2013-01-18 00:40:00,
2013-01-17 19:45:00,33.1,29.1,30.08,SW,221,0.0,0.0,85,0.00,,,1.57,VWS V14.00,2013-01-18 00:45:00,
2013-01-17 19:50:00,33.1,29.1,30.05,SW,221,0.0,0.0,85,0.00,,,1.57,VWS V14.00,2013-01-18 00:50:00,
2013-01-17 19:55:00,33.1,29.4,30.05,SW,221,0.0,0.0,86,0.00,,,1.57,VWS V14.00,2013-01-18 00:55:00,
2013-01-17 20:00:00,33.1,29.4,30.05,SW,216,0.0,0.0,86,0.00,,,1.57,VWS V14.00,2013-01-18 01:00:00,
2013-01-17 20:05:00,33.1,29.4,30.02,SW,223,0.0,0.0,86,0.00,,,1.57,VWS V14.00,2013-01-18 01:05:00,
2013-01-17 20:10:00,33.1,29.4,30.02,SW,220,0.0,0.0,86,0.00,,,1.57,VWS V14.00,2013-01-18 01:10:00,
2013-01-17 20:15:00,33.1,29.4,30.02,SW,220,0.0,0.0,86,0.00,,,1.57,VWS V14.00,2013-01-18 01:15:00,
2013-01-17 20:20:00,33.3,29.8,30.05,SW,220,0.0,0.0,87,0.00,,,1.57,VWS V14.00,2013-01-18 01:20:00,
2013-01-17 20:25:00,33.3,29.8,30.05,SW,220,0.0,0.0,87,0.00,,,1.57,VWS V14.00,2013-01-18 01:25:00,
2013-01-17 20:30:00,33.3,29.8,30.05,SW,220,0.0,0.0,87,0.00,,,1.57,VWS V14.00,2013-01-18 01:30:00,
2013-01-17 20:35:00,33.3,29.8,30.05,SW,220,0.0,0.0,87,0.00,,,1.57,VWS V14.00,2013-01-18 01:35:00,
2013-01-17 20:40:00,33.3,29.8,30.05,SW,220,0.0,0.0,87,0.00,,,1.57,VWS V14.00,2013-01-18 01:40:00,
2013-01-17 20:45:00,33.3,29.5,30.05,SW,220,0.0,0.0,86,0.00,,,1.57,VWS V14.00,2013-01-18 01:45:00,
2013-01-17 20:50:00,33.1,29.4,30.08,SW,220,0.0,0.0,86,0.00,,,1.57,VWS V14.00,2013-01-18 01:50:00,
2013-01-17 20:55:00,33.1,29.4,30.08,SW,220,0.0,0.0,86,0.00,,,1.57,VWS V14.00,2013-01-18 01:55:00,
2013-01-17 21:00:00,32.9,29.2,30.08,SW,220,0.0,0.0,86,0.00,,,1.57,VWS V14.00,2013-01-18 02:00:00,
2013-01-17 21:05:00,32.9,29.2,30.05,SW,220,0.0,0.0,86,0.00,,,1.57,VWS V14.00,2013-01-18 02:05:00,
2013-01-17 21:10:00,32.9,29.2,30.05,SW,220,0.0,0.0,86,0.00,,,1.57,VWS V14.00,2013-01-18 02:10:00,
2013-01-17 21:15:00,32.9,29.5,30.05,SW,220,0.0,0.0,87,0.00,,,1.57,VWS V14.00,2013-01-18 02:15:00,
2013-01-17 21:20:00,32.9,29.5,30.05,SW,219,0.0,0.0,87,0.00,,,1.57,VWS V14.00,2013-01-18 02:20:00,
2013-01-17 21:25:00,33.1,29.6,30.05,SW,219,0.0,0.0,87,0.00,,,1.57,VWS V14.00,2013-01-18 02:25:00,
2013-01-17 21:30:00,33.1,29.6,30.05,SW,219,0.0,0.0,87,0.00,,,1.57,VWS V14.00,2013-01-18 02:30:00,
2013-01-17 21:35:00,33.3,29.8,30.08,SW,219,0.0,0.0,87,0.00,,,1.57,VWS V14.00,2013-01-18 02:35:00,
2013-01-17 21:40:00,33.1,29.9,30.08,SW,219,0.0,0.0,88,0.00,,,1.57,VWS V14.00,2013-01-18 02:40:00,
2013-01-17 21:45:00,33.1,29.9,30.08,SW,219,0.0,0.0,88,0.00,,,1.57,VWS V14.00,2013-01-18 02:45:00,
2013-01-17 21:51:00,33.1,29.9,30.08,SW,219,0.0,0.0,88,0.00,,,1.57,VWS V14.00,2013-01-18 02:51:00,
2013-01-17 21:55:00,33.3,30.1,30.08,SW,219,0.0,0.0,88,0.00,,,1.57,VWS V14.00,2013-01-18 02:55:00,
2013-01-17 22:00:00,33.3,30.1,30.08,SW,219,0.0,0.0,88,0.00,,,1.57,VWS V14.00,2013-01-18 03:00:00,
2013-01-17 22:06:00,33.3,30.1,30.08,SW,219,0.0,0.0,88,0.00,,,1.57,VWS V14.00,2013-01-18 03:06:00,
2013-01-17 22:11:00,33.3,30.1,30.08,SW,219,0.0,0.0,88,0.00,,,1.57,VWS V14.00,2013-01-18 03:11:00,
2013-01-17 22:16:00,33.3,30.1,30.08,SW,219,0.0,0.0,88,0.00,,,1.57,VWS V14.00,2013-01-18 03:16:00,
2013-01-17 22:21:00,33.3,30.1,30.11,SW,219,0.0,0.0,88,0.00,,,1.57,VWS V14.00,2013-01-18 03:21:00,
2013-01-17 22:26:00,33.1,29.6,30.11,SW,219,0.0,0.0,87,0.04,,,1.61,VWS V14.00,2013-01-18 03:26:00,
2013-01-17 22:31:00,33.1,29.6,30.11,SW,219,0.0,0.0,87,0.04,,,1.61,VWS V14.00,2013-01-18 03:31:00,
2013-01-17 22:36:00,33.1,29.6,30.14,SW,218,0.0,0.0,87,0.04,,,1.61,VWS V14.00,2013-01-18 03:36:00,
2013-01-17 22:41:00,33.1,29.6,30.14,South,175,0.0,0.0,87,0.04,,,1.61,VWS V14.00,2013-01-18 03:41:00,
2013-01-17 22:46:00,33.1,29.6,30.14,South,175,0.0,0.0,87,0.04,,,1.61,VWS V14.00,2013-01-18 03:46:00,
2013-01-17 22:51:00,33.1,29.6,30.14,South,175,0.0,0.0,87,0.04,,,1.61,VWS V14.00,2013-01-18 03:51:00,
2013-01-17 22:56:00,33.1,29.6,30.14,South,175,0.0,0.0,87,0.04,,,1.61,VWS V14.00,2013-01-18 03:56:00,
2013-01-17 23:01:00,33.3,29.8,30.14,South,175,0.0,0.0,87,0.04,,,1.61,VWS V14.00,2013-01-18 04:01:00,
2013-01-17 23:06:00,33.1,29.6,30.17,South,175,0.0,0.0,87,0.04,,,1.61,VWS V14.00,2013-01-18 04:06:00,
2013-01-17 23:11:00,33.3,29.8,30.17,South,175,0.0,0.0,87,0.04,,,1.61,VWS V14.00,2013-01-18 04:11:00,
2013-01-17 23:16:00,33.3,29.8,30.17,South,175,0.0,0.0,87,0.04,,,1.61,VWS V14.00,2013-01-18 04:16:00,
2013-01-17 23:21:00,33.3,29.8,30.17,South,175,0.0,0.0,87,0.04,,,1.61,VWS V14.00,2013-01-18 04:21:00,
2013-01-17 23:26:00,33.3,29.8,30.17,South,175,0.0,0.0,87,0.00,,,1.61,VWS V14.00,2013-01-18 04:26:00,
2013-01-17 23:31:00,33.3,29.8,30.17,South,175,0.0,0.0,87,0.00,,,1.61,VWS V14.00,2013-01-18 04:31:00,
2013-01-17 23:36:00,33.3,29.8,30.17,South,175,0.0,0.0,87,0.00,,,1.61,VWS V14.00,2013-01-18 04:36:00,
2013-01-17 23:41:00,33.3,29.8,30.17,South,175,0.0,0.0,87,0.00,,,1.61,VWS V14.00,2013-01-18 04:41:00,
2013-01-17 23:46:00,33.1,29.6,30.17,South,175,0.0,0.0,87,0.00,,,1.61,VWS V14.00,2013-01-18 04:46:00,
2013-01-17 23:51:00,33.1,29.6,30.17,South,174,0.0,0.0,87,0.00,,,1.61,VWS V14.00,2013-01-18 04:51:00,
2013-01-17 23:56:00,33.1,29.6,30.17,South,174,0.0,0.0,87,0.00,,,1.61,VWS V14.00,2013-01-18 04:56:00,